Location: Cutler
(25.6150°N, 80.3110°W)
Time: 03:19:14
(UTC-04:00)

Cosmos 2360 Rocket - Visible Passes

Search period start: 22 July 2014 00:00
Search period end: 01 August 2014 00:00
Orbit: 834 x 845 km, 71.0° (Epoch: 21 July)

Date Brightness Start Highest point End Pass type
(mag) Time Alt. Az. Time Alt. Az. Time Alt. Az.
22 Jul 4.9 00:54:51 10° NW 00:55:10 11° NW 00:55:10 11° NW visible
22 Jul 3.9 22:55:27 10° N 22:58:10 21° NE 22:58:10 21° NE visible
23 Jul 4.8 00:39:10 10° NW 00:39:56 14° NW 00:39:56 14° NW visible
23 Jul 3.9 22:40:00 10° NNE 22:42:59 22° NE 22:42:59 22° NE visible
24 Jul 4.6 00:23:29 10° NW 00:24:45 16° NW 00:24:45 16° NW visible
24 Jul 3.8 22:24:33 10° NNE 22:27:50 21° NE 22:27:50 21° NE visible
25 Jul 4.4 00:07:49 10° NW 00:09:36 19° NW 00:09:36 19° NW visible
25 Jul 3.8 22:09:08 10° NNE 22:12:43 21° NE 22:12:43 21° NE visible
25 Jul 4.2 23:52:09 10° NW 23:54:30 23° NW 23:54:30 23° NW visible
26 Jul 3.7 21:53:43 10° NNE 21:57:38 19° ENE 21:57:38 19° ENE visible
26 Jul 3.9 23:36:30 10° NW 23:39:25 27° WNW 23:39:25 27° WNW visible
27 Jul 3.8 21:38:19 10° NNE 21:42:05 18° ENE 21:42:37 18° ENE visible
27 Jul 3.6 23:20:52 10° NW 23:24:24 33° WNW 23:24:24 33° WNW visible
28 Jul 3.8 21:22:57 10° NNE 21:26:29 17° ENE 21:27:38 16° ENE visible
28 Jul 3.3 23:05:14 10° NNW 23:09:25 40° WNW 23:09:25 40° WNW visible
29 Jul 3.9 21:07:36 10° NNE 21:10:52 16° ENE 21:12:42 14° E visible
29 Jul 2.9 22:49:37 10° NNW 22:54:30 49° W 22:54:30 49° W visible
30 Jul 4.0 20:52:17 10° NNE 20:55:15 14° ENE 20:57:50 11° E visible
30 Jul 2.6 22:34:00 10° NNW 22:39:30 55° WSW 22:39:38 54° WSW visible
31 Jul 4.1 20:37:02 10° NNE 20:39:38 13° ENE 20:42:15 10° E visible
31 Jul 2.5 22:18:23 10° NNW 22:23:56 59° WSW 22:24:50 52° SW visible
